Погода в Погорелове

Россия / Вологодская область     59°42′22″N   42°02′17″E
темп.,
°C
ветер,
м/с
пор.,
м/с
влажн.,
%
обл.,
%
осадки,
мм/ч
давл.,
гПа
погр.,
м
15 мая, сб
сб1500:00+13ююв118199 0.0 101515
03:00+12ююв229669 0.3 101530
06:00+14юв239139 0.1 1014172
09:00+18юв2473100 0.1 1013645
12:00+21ююв356696 0.0 10131148
15:00+20ююв457465 0.1 1011642
18:00+18ююв51176100 0.3 1010831
21:00+13юв41091100 0.4 1009336
16 мая, вс
вс1600:00+14ююв4129638 0.5 1008490
03:00+13ю4119866 0.5 1008398
06:00+14ю4119455 0.0 1008462
09:00+16ююз5981100 0.1 1009904
12:00+17ююз5107597 0.1 10101105
15:00+20юз6106316 0.3 10091481
18:00+17юз5108084 1.2 10091003
21:00+14ююз3119225 2.2 1010448
17 мая, пн
пн1700:00+12юз399814 0.0 1012273
03:00+11юз399827 0.0 1013247
06:00+13зюз38923 0.0 1015333
09:00+17зюз466841 0.0 10161037
12:00+21зюз46513 0.0 10161633
15:00+22зюз354583 0.0 10151790
18:00+21зюз126184 0.0 1015136
21:00+15св117497 0.0 101611
18 мая, вт
вт1800:00+13всв228499 0.0 101629
03:00+12в2690100 0.0 1016112
06:00+15в388497 0.1 1015222
09:00+20вюв4765100 0.1 1014526
12:00+25юв464835 0.0 10131205
15:00+28ююв47375 0.0 10122556
18:00+24юв410475 0.0 1010529
21:00+17юв311750 0.0 1011197
19 мая, ср
ср1900:00+15юв312823 0.0 1011239
03:00+13вюв398910 0.0 1010164
06:00+16юв278094 0.0 1009229
09:00+22юв495991 0.0 1008554
12:00+26ююв51144100 0.0 10071571
15:00+27ююв5154147 0.0 10053033
18:00+25ююв6114588 0.0 10031187
21:00+16юв51492100 5.6 1003533